User: anonymous   Login
Location: Unspecified
(0.0000°N, 0.0000°E)
Time: 19:20:48
(UTC+02:00)
Language:

ATLAS V CENTAUR R/B - Orbit

View from above orbital plane
View from above orbital plane
View from above satellite
View from above satellite

Ground track
Ground track

The orbit data is extracted from the following two-line orbital elements,

1 27500U 02038B   18110.54491217  .00006066  00000-0  75712-3 0  9994
2 27500  17.9219 248.1799 6732112 269.2696  19.5382  3.01733489135136
Epoch (UTC): 20 April 2018 13:04:40
Eccentricity: 0.6732112
inclination: 17.9219°
perigee height: 232 km
apogee height: 27470 km
right ascension of ascending node: 248.1799°
argument of perigee: 269.2696°
revolutions per day: 3.01733489
mean anomaly at epoch: 19.5382°
orbit number at epoch: 13513

The dashed part of the orbit path shows where the satellite is in the earth's shadow,  

DLR